CZ-6A DEB

Satellite information

Favourite Embed

Satellite Type and Status

DEBRISIN ORBIT

Key statistics

Satellite CZ-6A DEB at a glance.

Uptime

1129

Days in orbit

Revolutions

≈ 14.2

Per day

Orbit

SSO

Sun Synchronous Orbit

Inclination

98.9

Latest

Satellite identification and parameters

Extended collection of information and parameters for CZ-6A DEB.

Object identification

Identified? True

Debris? True

Object name: CZ-6A DEB

International designator: 2022-151GZ

Object number (NORAD): 54473

Object ID (CCSDS): 54473

Country: PEOPLES REPUBLIC OF CHINA (PRC)

Current information (Y/N): Y

RCS size: MEDIUM

Orbital parameters

Period: 101.541 minutes

Inclination: 98.8568 deg

SMA: 7209.769 km

Apoapsis: 855.36 km

Periapsis: 807.908 km

RAAN: 9.4662 deg

Eccentricy: 0.00329081

Argument of periapsis: 22.4837 deg

Mean anomaly: 337.7772 deg

Mean motion: 14.18145408 rev/day

Mean motion (dot): 0.00000544 rev/day2

B* drag term: 0.00028508331 1/REarth

Two-line elements (TLE)

Creation date: Dec. 14, 2025, 3:07 a.m.

Reference frame: TEME

Reference center: EARTH

Epoch: Dec. 13, 2025, 3:33 p.m. UTC

TLE line 0: 0 CZ-6A DEB

TLE line 1: 1 54473U 22151GZ 25347.64814043 .00000544 00000-0 28508-3 0 9994

TLE line 2: 2 54473 98.8568 9.4662 0032908 22.4837 337.7772 14.18145408159494

Live tracking on map

Real-time ground track for satellite CZ-6A DEB.

In-orbit conjunctions

A list of the most updated potential collisions computed for object CZ-6A DEB.

Target Orbit TCA Probability of collision Miss distance Type
CZ-6A DEB LEO 2025-11-28 15:15:29 0.0001541353 101.0 (m) DEBRIS
SEDSAT 1 LEO 2025-11-24 05:08:17 0.003093803 114.0 (m) PAYLOAD
FENGYUN 1C DEB SSO 2025-04-28 00:27:56 0.000122747 392.0 (m) DEBRIS
METEOR 2-8 DEB LEO 2024-09-09 17:14:57 0.0001124374 67.0 (m) DEBRIS

Associated space launch

Chinese satellite reported for atmospheric/ocean/environmental/spatial parameter research purposes, details TBD.

CZ-6A DEB was lifted into orbit during the mission ‘Long March 6A | Yunhai 3’, on board a Long March 6A space rocket.

The launch took place on Nov. 11, 2022, 10:52 p.m. from Launch Complex 9A.

For more information about the launch, click the button.

Launch to space Long March 6A | Yunhai 3
Long March 6A | Yunhai 3

Agency: N/A

Status: Launch Successful

Launch date: Nov. 11, 2022, 10:52 p.m. UTC

Rocket: Long March 6A

Launch pad: Launch Complex 9A

Location: Taiyuan Satellite Launch Center, People's Republic of China

...

Latest news about this satellite

There are no fresh news available about this satellite. Check back as we update our databases every day.


Newsletter sign-up

Weekly statistics, charts and insights to help you stay on top of the space industry.